Regional Weather Roundup
Issued by NWS

Home | Current Version | Previous Version | Graphics & Text | Print | Product List | Glossary On
Versions: 1 2 3 4 5 6 7 8 9 10 11 12 13 14 15 16 17 18 19 20 21 22 23 24 25 26 27 28 29 30 31 32 33 34 35 36 37 38 39 40 41 42 43 44 45 46 47 48 49 50
000
ASUS43 KLOT 250903
RWRIL

ILLINOIS REGIONAL WEATHER ROUNDUP
NATIONAL WEATHER SERVICE CHICAGO/ROMEOVILLE IL
400 AM CDT WED MAY 25 2016

NOTE: "FAIR" INDICATES FEW OR NO CLOUDS BELOW 12,000 FEET WITH NO
SIGNIFICANT WEATHER AND/OR OBSTRUCTIONS TO VISIBILITY.

* THESE STATIONS ARE NOT UNDER NWS QUALITY CONTROL. THEY ALSO MAY NOT
  REPORT WEATHER SUCH AS PRECIPITATION OR FOG.

ILZ001-002-007-009-015-016-024-251000-
NORTHWEST ILLINOIS

CITY           SKY/WX    TMP DP  RH WIND       PRES   REMARKS
MOLINE         CLOUDY    64  59  83 E7        29.92F
STERLING*      CLEAR     63  60  90 E5        29.95F
$$

ILZ003-004-008-010-011-017-018-251000-
NORTH CENTRAL ILLINOIS

CITY           SKY/WX    TMP DP  RH WIND       PRES   REMARKS
ROCKFORD       PTCLDY    67  60  78 S5        29.98F
FREEPORT*      CLEAR     64  59  85 S3        29.98F
ROCHELLE*      CLEAR     64  58  81 S6        29.98F
$$

ILZ005-006-012>014-019>023-251000-
NORTHEAST ILLINOIS

CITY           SKY/WX    TMP DP  RH WIND       PRES   REMARKS
CHICAGO-OHARE  MOCLDY    70  61  73 SW7       29.99R
CHICAGO-MIDWAY MOCLDY    71  59  65 SW7       29.99S
AURORA         CLEAR     66  60  81 CALM      29.99F
LANSING*       MOCLDY    64  57  78 S5        30.01S
WAUKEGAN       CLEAR     68  60  75 SW7       29.97F
DUPAGE AIRPORT CLEAR     65  59  81 S5        29.99S
WHEELING       CLEAR     71  61  70 SW5       30.00S
NORTHERLY ISL    N/A     72  58  61 SW7         N/A
NORTHERLY ISL    N/A     72  58  61 SW7         N/A
$$

LMZ740>746-251000-
SOUTHERN LAKE MICHIGAN

STATION/POSITION SKY/WX   TEMP    WIND        PRES    VSBY  WAVE
                          AIR SEA DIR/SP/G                  HT/PER
                          (F)     (DEG/KT/KT) (MB)    (MI)  (FT/S)
SOUTHERN BUOY              56 49  200/  8/ 10 1015.2          0
WILMETTE HARBOR            65 56  210/  4/  4   N/A           1/ 2
HARRISON CRIB              72     200/ 15/ 16   N/A
BURNHAM HARBOR             72     200/  6/ 10   N/A
CALUMET HARBOR             72     200/  8/ 10 1015.2F
BURNS HARBOR               70     200/  9/ 11 1016.6S
MICHIGAN CITY              70     170/ 10/ 11   N/A
MICHIGAN CITY 6N           63 57  200/  8/  8   N/A           1
ST. JOSEPH                 62 58  200/  6/  6   N/A           1/ 2
$$

ILZ025>027-034>036-040-047-049-050-058-095>099-251000-
WEST-CENTRAL ILLINOIS

CITY           SKY/WX    TMP DP  RH WIND       PRES   REMARKS
QUINCY         CLEAR     63  61  93 S7        29.95R
MACOMB*        PTCLDY    63  62  94 S7        29.96F
PITTSFIELD*    CLEAR     63  61  96 S6        29.98R
$$

ILZ028>032-037-038-041>044-048-051>054-059>061-251000-
CENTRAL ILLINOIS

CITY           SKY/WX    TMP DP  RH WIND       PRES   REMARKS
BLOOMINGTON    CLOUDY    64  63  97 S6        29.99F
DECATUR        CLOUDY    65  61  87 S3        29.99F
PEORIA         CLEAR     66  60  81 S6        29.96F
SPRINGFIELD    CLOUDY    64  61  90 S7        29.97F
TAYLORVILLE    NOT AVBL
$$

ILZ033-039-045-046-055>057-062-063-251000-
EAST-CENTRAL ILLINOIS

CITY           SKY/WX    TMP DP  RH WIND       PRES   REMARKS
CHAMPAIGN      MOCLDY    64  60  87 S6        30.01F
MATTOON        MOCLDY    65  61  87 S3        30.00F
$$

ILZ079-100>102-251000-
SOUTHWEST ILLINOIS

CITY           SKY/WX    TMP DP  RH WIND       PRES   REMARKS
CAHOKIA*       PTCLDY    64  61  90 SE6       29.97F
SPARTA*        CLOUDY    62  61  97 SE3       30.01S
$$

ILZ064>066-069>071-074>076-080>082-084>086-088>090-092>094-251000-
SOUTH-CENTRAL ILLINOIS

CITY           SKY/WX    TMP DP  RH WIND       PRES   REMARKS
CARBONDALE     CLOUDY    64  61  90 S3        30.01F
MT. VERNON     CLOUDY    59  54  82 CALM      30.02F
SALEM*         CLOUDY    66  63  90 S3        30.01F
$$

ILZ067-068-072-073-078-083-087-091-251000-
SOUTHEAST ILLINOIS

CITY           SKY/WX    TMP DP  RH WIND       PRES   REMARKS
LAWRENCEVILLE  PTCLDY    65  60  84 SE3       30.04S
FLORA*         PTCLDY    64  62  94 S3        30.03S
HARRISBURG*    MOCLDY    63  61  96 CALM      30.03S
ROBINSON*      PTCLDY    61  58  91 S3        30.04F
$$

ABBREVIATIONS USED IN REMARKS
   TC - TEMPERATURE IN CELSIUS
  WCI - WIND CHILL INDEX
   HX - HEAT INDEX
  VSB - VISIBILITY
$$





USA.gov is the U.S. government's official web portal to all federal, state and local government web resources and services.